Private Wetterstation Wechselburg
Wetterdaten: Sonntag, 02.04.2023
Datum Zeit Temp. +2m Bodentemp. Temp.+5cm Temp. Wind Windchill X Diff Temp. Feuchte +2m Feuchte +5cm Luftdruck Regen Wind Richtung Richtung Sonnenschein Taupunkt Windchill Windben
02.04.2023 00:00 8,8 C 12,3 C 8,4 C 8,7 C 8,5 C 0,0 C 88 % 89 % 1006,1 hPa 0,0 l/m 0,0 km/h (0 Bft) N-NO 22 0 min 6,9 C 8,5 C 0,0 km/h (0 Bft)
02.04.2023 00:05 8,6 C 12,3 C 8,2 C 8,5 C 8,4 C 0,0 C 88 % 89 % 1005,7 hPa 0,0 l/m 0,0 km/h (0 Bft) O-NO 67 0 min 6,7 C 8,4 C 0,0 km/h (0 Bft)
02.04.2023 00:11 8,5 C 12,3 C 8,1 C 8,4 C 8,2 C 0,0 C 88 % 89 % 1005,7 hPa 0,0 l/m 0,0 km/h (0 Bft) N 0 0 min 6,6 C 8,2 C 0,0 km/h (0 Bft)
02.04.2023 00:26 8,3 C 12,3 C 7,9 C 8,2 C 8,1 C 0,0 C 88 % 89 % 1006,4 hPa 0,0 l/m 0,0 km/h (0 Bft) NO 45 0 min 6,4 C 8,1 C 0,0 km/h (0 Bft)
02.04.2023 00:27 8,3 C 12,3 C 7,9 C 8,2 C 8,1 C 0,0 C 88 % 89 % 1006,4 hPa 0,0 l/m 0,0 km/h (0 Bft) NO 45 0 min 6,4 C 8,1 C 0,0 km/h (0 Bft)
02.04.2023 00:41 8,1 C 12,3 C 7,7 C 8,0 C 7,9 C 0,0 C 88 % 89 % 1006,0 hPa 0,0 l/m 0,0 km/h (0 Bft) N-NW 337 0 min 6,2 C 7,9 C 0,0 km/h (0 Bft)
02.04.2023 00:53 8,0 C 12,3 C 7,6 C 7,9 C 7,7 C 0,0 C 89 % 89 % 1006,0 hPa 0,7 l/m 0,6 km/h (0 Bft) NW 315 0 min 6,3 C 7,7 C 4,3 km/h (1 Bft)
02.04.2023 00:55 8,0 C 12,3 C 7,6 C 7,9 C 7,7 C 0,0 C 89 % 89 % 1006,0 hPa 0,0 l/m 0,6 km/h (0 Bft) NW 315 0 min 6,3 C 7,7 C 4,3 km/h (1 Bft)
02.04.2023 01:00 7,9 C 12,3 C 7,5 C 7,8 C 7,6 C 0,0 C 89 % 89 % 1006,0 hPa 0,0 l/m 0,6 km/h (0 Bft) W-NW 292 0 min 6,2 C 7,6 C 0,0 km/h (0 Bft)
02.04.2023 01:05 7,7 C 12,2 C 7,3 C 7,6 C 7,5 C 0,0 C 89 % 89 % 1006,3 hPa 0,0 l/m 0,8 km/h (0 Bft) NO 45 0 min 6,0 C 7,5 C 0,0 km/h (0 Bft)
02.04.2023 01:10 7,7 C 12,2 C 7,2 C 7,6 C 7,4 C 0,0 C 89 % 89 % 1006,3 hPa 0,0 l/m 0,5 km/h (0 Bft) SO 135 0 min 6,0 C 7,4 C 0,0 km/h (0 Bft)
02.04.2023 01:15 7,5 C 12,2 C 7,1 C 7,4 C 7,2 C 0,0 C 88 % 89 % 1006,3 hPa 0,0 l/m 0,0 km/h (0 Bft) N-NO 22 0 min 5,6 C 7,2 C 0,0 km/h (0 Bft)
02.04.2023 01:20 7,4 C 12,2 C 7,0 C 7,3 C 7,2 C 0,0 C 88 % 89 % 1006,3 hPa 0,0 l/m 0,2 km/h (0 Bft) NW 315 0 min 5,5 C 7,2 C 6,1 km/h (2 Bft)
02.04.2023 01:25 7,2 C 12,2 C 7,0 C 7,1 C 7,0 C 0,0 C 88 % 89 % 1006,4 hPa 0,0 l/m 1,0 km/h (0 Bft) O-NO 67 0 min 5,3 C 7,0 C 3,7 km/h (1 Bft)
02.04.2023 01:30 7,2 C 12,2 C 6,7 C 7,1 C 6,9 C 0,0 C 88 % 88 % 1006,4 hPa 0,0 l/m 2,1 km/h (1 Bft) O-NO 67 0 min 5,3 C 6,9 C 4,2 km/h (1 Bft)
02.04.2023 01:35 7,1 C 12,2 C 6,7 C 7,0 C 6,8 C 0,0 C 88 % 88 % 1006,4 hPa 0,0 l/m 2,7 km/h (1 Bft) NW 315 0 min 5,2 C 6,8 C 6,3 km/h (2 Bft)
02.04.2023 01:40 6,9 C 12,2 C 6,6 C 6,8 C 6,7 C 0,0 C 88 % 88 % 1006,4 hPa 0,0 l/m 1,6 km/h (1 Bft) O-NO 67 0 min 5,1 C 6,7 C 2,1 km/h (1 Bft)
02.04.2023 01:45 6,8 C 12,2 C 6,5 C 6,7 C 6,6 C 0,0 C 88 % 88 % 1006,8 hPa 0,0 l/m 1,0 km/h (0 Bft) N-NO 22 0 min 5,0 C 6,6 C 2,7 km/h (1 Bft)
02.04.2023 01:50 6,7 C 12,2 C 6,4 C 6,6 C 6,5 C 0,0 C 88 % 88 % 1006,8 hPa 0,0 l/m 1,4 km/h (1 Bft) O-NO 67 0 min 4,9 C 6,5 C 1,6 km/h (1 Bft)
02.04.2023 01:55 6,5 C 12,1 C 6,3 C 6,4 C 6,3 C 0,0 C 88 % 88 % 1006,8 hPa 0,0 l/m 2,3 km/h (1 Bft) NO 45 0 min 4,7 C 6,3 C 4,7 km/h (1 Bft)
02.04.2023 02:00 6,4 C 12,1 C 6,2 C 6,3 C 6,2 C 0,0 C 88 % 88 % 1006,8 hPa 0,0 l/m 2,7 km/h (1 Bft) NO 45 0 min 4,6 C 6,2 C 3,9 km/h (1 Bft)
02.04.2023 02:05 6,3 C 12,2 C 6,0 C 6,3 C 6,2 C 0,0 C 89 % 88 % 1007,1 hPa 0,0 l/m 3,1 km/h (1 Bft) O 90 0 min 4,6 C 6,2 C 2,6 km/h (1 Bft)
02.04.2023 02:11 6,1 C 12,2 C 5,8 C 6,1 C 6,0 C 0,0 C 89 % 88 % 1007,1 hPa 0,7 l/m 2,6 km/h (1 Bft) N 0 0 min 4,4 C 6,0 C 6,4 km/h (2 Bft)
02.04.2023 02:26 5,8 C 12,1 C 5,6 C 5,8 C 5,8 C 0,0 C 89 % 88 % 1007,3 hPa 0,0 l/m 1,8 km/h (1 Bft) O-NO 67 0 min 4,1 C 5,8 C 2,1 km/h (1 Bft)
02.04.2023 02:30 5,8 C 12,1 C 5,6 C 5,8 C 5,8 C 0,0 C 89 % 88 % 1007,3 hPa 0,0 l/m 1,8 km/h (1 Bft) O-NO 67 0 min 4,1 C 5,8 C 2,1 km/h (1 Bft)
02.04.2023 02:35 5,8 C 12,1 C 5,6 C 5,8 C 5,7 C 0,0 C 89 % 88 % 1007,3 hPa 0,7 l/m 1,8 km/h (1 Bft) N 360 0 min 4,1 C 5,7 C 7,1 km/h (2 Bft)
02.04.2023 02:40 5,7 C 12,1 C 5,6 C 5,7 C 5,7 C 0,0 C 89 % 88 % 1007,3 hPa 0,0 l/m 1,9 km/h (1 Bft) O-NO 67 0 min 4,0 C 5,7 C 3,9 km/h (1 Bft)
02.04.2023 02:45 5,6 C 12,1 C 5,4 C 5,6 C 5,6 C 0,0 C 89 % 88 % 1007,6 hPa 0,0 l/m 1,9 km/h (1 Bft) NO 45 0 min 3,9 C 5,6 C 1,8 km/h (1 Bft)
02.04.2023 02:50 5,5 C 12,1 C 5,4 C 5,5 C 5,5 C 0,0 C 89 % 88 % 1007,6 hPa 0,0 l/m 1,6 km/h (1 Bft) NW 315 0 min 3,8 C 5,5 C 0,0 km/h (0 Bft)
02.04.2023 02:55 5,5 C 12,0 C 5,3 C 5,5 C 5,4 C 0,0 C 89 % 88 % 1007,6 hPa 0,0 l/m 1,6 km/h (1 Bft) N-NW 337 0 min 3,8 C 5,4 C 1,6 km/h (1 Bft)
02.04.2023 03:00 5,3 C 12,0 C 5,2 C 5,4 C 5,4 C 0,1 C 89 % 88 % 1007,6 hPa 0,0 l/m 1,9 km/h (1 Bft) N-NO 22 0 min 3,6 C 5,4 C 3,7 km/h (1 Bft)
02.04.2023 03:05 5,2 C 12,0 C 5,1 C 5,3 C 5,3 C 0,1 C 89 % 88 % 1007,9 hPa 0,0 l/m 2,9 km/h (1 Bft) N-NO 22 0 min 3,5 C 5,3 C 3,2 km/h (1 Bft)
02.04.2023 03:10 5,2 C 12,0 C 5,2 C 5,2 C 5,2 C 0,0 C 89 % 88 % 1007,9 hPa 0,0 l/m 2,7 km/h (1 Bft) NO 45 0 min 3,5 C 5,2 C 0,0 km/h (0 Bft)
02.04.2023 03:15 5,1 C 12,0 C 5,1 C 5,2 C 5,2 C 0,1 C 89 % 88 % 1007,9 hPa 0,0 l/m 1,8 km/h (1 Bft) O-NO 67 0 min 3,4 C 5,2 C 4,3 km/h (1 Bft)
02.04.2023 03:20 5,1 C 12,0 C 5,1 C 5,2 C 5,2 C 0,1 C 89 % 88 % 1007,9 hPa 0,0 l/m 1,8 km/h (1 Bft) NO 45 0 min 3,4 C 5,2 C 4,5 km/h (1 Bft)
02.04.2023 03:25 5,0 C 12,0 C 5,1 C 5,2 C 5,2 C 0,2 C 89 % 88 % 1008,2 hPa 0,7 l/m 2,3 km/h (1 Bft) NO 45 0 min 3,3 C 5,2 C 3,5 km/h (1 Bft)
02.04.2023 03:30 4,9 C 12,0 C 5,0 C 5,1 C 5,1 C 0,2 C 89 % 88 % 1008,2 hPa 0,0 l/m 2,7 km/h (1 Bft) NO 45 0 min 3,2 C 5,1 C 2,4 km/h (1 Bft)
02.04.2023 03:35 4,8 C 11,9 C 4,9 C 4,8 C 4,8 C 0,0 C 89 % 88 % 1008,2 hPa 0,0 l/m 3,4 km/h (1 Bft) N-NW 337 0 min 3,1 C 4,8 C 7,4 km/h (2 Bft)
02.04.2023 03:40 4,8 C 11,9 C 4,9 C 4,8 C 4,7 C 0,0 C 89 % 88 % 1008,2 hPa 0,0 l/m 3,7 km/h (1 Bft) NO 45 0 min 3,1 C 4,7 C 4,2 km/h (1 Bft)
02.04.2023 03:45 4,7 C 11,9 C 4,9 C 4,8 C 4,8 C 0,1 C 89 % 88 % 1008,8 hPa 0,0 l/m 3,4 km/h (1 Bft) NO 45 0 min 3,0 C 4,8 C 10,8 km/h (2 Bft)
02.04.2023 03:50 4,7 C 11,9 C 4,8 C 4,9 C 4,9 C 0,2 C 89 % 87 % 1008,8 hPa 0,0 l/m 3,2 km/h (1 Bft) O-NO 67 0 min 3,0 C 4,9 C 5,8 km/h (2 Bft)
02.04.2023 03:55 4,7 C 11,9 C 4,8 C 4,7 C 4,7 C 0,0 C 89 % 87 % 1008,8 hPa 0,0 l/m 3,2 km/h (1 Bft) NO 45 0 min 3,0 C 4,7 C 4,3 km/h (1 Bft)
02.04.2023 04:00 4,6 C 11,9 C 4,7 C 4,8 C 4,8 C 0,2 C 89 % 87 % 1008,8 hPa 0,0 l/m 2,9 km/h (1 Bft) N-NO 22 0 min 2,9 C 4,8 C 0,0 km/h (0 Bft)
02.04.2023 04:05 4,5 C 11,8 C 4,7 C 4,8 C 4,8 C 0,3 C 89 % 87 % 1008,8 hPa 0,0 l/m 2,7 km/h (1 Bft) O-NO 67 0 min 2,8 C 4,8 C 4,2 km/h (1 Bft)
02.04.2023 04:10 4,4 C 11,8 C 4,6 C 4,7 C 4,7 C 0,3 C 89 % 87 % 1008,8 hPa 0,0 l/m 2,6 km/h (1 Bft) W-SW 247 0 min 2,7 C 4,7 C 4,0 km/h (1 Bft)
02.04.2023 04:15 4,4 C 11,8 C 4,7 C 4,4 C 4,4 C 0,0 C 89 % 87 % 1008,8 hPa 0,0 l/m 3,5 km/h (1 Bft) NO 45 0 min 2,7 C 4,4 C 6,3 km/h (2 Bft)
02.04.2023 04:20 4,5 C 11,8 C 4,7 C 4,4 C 4,2 C 0,0 C 89 % 87 % 1008,8 hPa 0,0 l/m 4,0 km/h (1 Bft) O-NO 67 0 min 2,8 C 4,2 C 10,1 km/h (2 Bft)
02.04.2023 04:25 4,3 C 11,8 C 4,6 C 4,0 C 3,4 C 0,0 C 89 % 87 % 1009,3 hPa 0,0 l/m 5,5 km/h (1 Bft) O-NO 67 0 min 2,7 C 2,1 C 8,5 km/h (2 Bft)
02.04.2023 04:30 4,3 C 11,8 C 4,6 C 3,9 C 3,2 C 0,0 C 89 % 87 % 1009,3 hPa 0,0 l/m 6,3 km/h (2 Bft) O-NO 67 0 min 2,7 C 1,5 C 5,1 km/h (1 Bft)
02.04.2023 04:35 4,3 C 11,7 C 4,5 C 3,9 C 3,1 C 0,0 C 89 % 87 % 1009,3 hPa 0,0 l/m 6,4 km/h (2 Bft) O-NO 67 0 min 2,7 C 1,4 C 10,1 km/h (2 Bft)
02.04.2023 04:40 4,3 C 11,7 C 4,5 C 4,0 C 3,4 C 0,0 C 89 % 87 % 1009,3 hPa 0,7 l/m 5,5 km/h (1 Bft) O-NO 67 0 min 2,7 C 2,1 C 5,6 km/h (1 Bft)
02.04.2023 04:45 4,2 C 11,7 C 4,5 C 3,9 C 3,4 C 0,0 C 89 % 87 % 1009,9 hPa 0,0 l/m 5,1 km/h (1 Bft) O-NO 67 0 min 2,6 C 2,2 C 5,1 km/h (1 Bft)
02.04.2023 04:50 4,1 C 11,7 C 4,5 C 3,9 C 3,6 C 0,0 C 89 % 87 % 1009,9 hPa 0,0 l/m 4,8 km/h (1 Bft) O-NO 67 0 min 2,5 C 2,6 C 4,3 km/h (1 Bft)
02.04.2023 04:55 4,1 C 11,7 C 4,4 C 4,0 C 3,8 C 0,0 C 89 % 87 % 1009,9 hPa 0,0 l/m 4,3 km/h (1 Bft) O-NO 67 0 min 2,5 C 3,8 C 6,8 km/h (2 Bft)
02.04.2023 05:00 4,0 C 11,7 C 4,4 C 4,1 C 4,1 C 0,1 C 89 % 87 % 1009,9 hPa 0,0 l/m 3,7 km/h (1 Bft) O-NO 67 0 min 2,4 C 4,1 C 4,8 km/h (1 Bft)
02.04.2023 05:05 4,0 C 11,7 C 4,3 C 4,4 C 4,4 C 0,4 C 89 % 87 % 1010,1 hPa 0,0 l/m 2,4 km/h (1 Bft) O 90 0 min 2,4 C 4,4 C 0,0 km/h (0 Bft)
02.04.2023 05:10 3,9 C 11,7 C 4,2 C 4,4 C 4,4 C 0,5 C 89 % 87 % 1010,1 hPa 0,0 l/m 2,1 km/h (1 Bft) O-NO 67 0 min 2,3 C 4,4 C 5,0 km/h (1 Bft)
02.04.2023 05:15 3,8 C 11,6 C 4,2 C 4,3 C 4,3 C 0,5 C 89 % 87 % 1010,1 hPa 0,0 l/m 2,7 km/h (1 Bft) N 360 0 min 2,2 C 4,3 C 3,4 km/h (1 Bft)
02.04.2023 05:20 3,9 C 11,6 C 4,2 C 4,1 C 4,1 C 0,2 C 89 % 87 % 1010,1 hPa 0,0 l/m 3,1 km/h (1 Bft) O-NO 67 0 min 2,3 C 4,1 C 3,7 km/h (1 Bft)
02.04.2023 05:25 3,8 C 11,6 C 4,1 C 4,1 C 4,1 C 0,3 C 89 % 87 % 1010,4 hPa 0,0 l/m 2,4 km/h (1 Bft) NO 45 0 min 2,2 C 4,1 C 2,9 km/h (1 Bft)
02.04.2023 05:30 3,8 C 11,6 C 4,2 C 4,1 C 4,1 C 0,3 C 89 % 87 % 1010,4 hPa 0,0 l/m 2,3 km/h (1 Bft) N-NW 337 0 min 2,2 C 4,1 C 3,9 km/h (1 Bft)
02.04.2023 05:35 3,7 C 11,6 C 4,0 C 4,1 C 4,1 C 0,4 C 89 % 87 % 1010,4 hPa 0,0 l/m 2,7 km/h (1 Bft) O-SO 112 0 min 2,1 C 4,1 C 4,7 km/h (1 Bft)
02.04.2023 05:40 3,6 C 11,6 C 4,2 C 3,9 C 3,9 C 0,3 C 89 % 87 % 1010,4 hPa 0,0 l/m 3,2 km/h (1 Bft) NO 45 0 min 2,0 C 3,9 C 3,7 km/h (1 Bft)
02.04.2023 05:45 3,6 C 11,5 C 4,0 C 3,6 C 3,6 C 0,0 C 89 % 87 % 1010,7 hPa 0,0 l/m 3,9 km/h (1 Bft) N-NO 22 0 min 2,0 C 3,6 C 2,9 km/h (1 Bft)
02.04.2023 05:50 3,6 C 11,5 C 4,0 C 3,6 C 3,5 C 0,0 C 89 % 87 % 1010,7 hPa 0,0 l/m 4,0 km/h (1 Bft) O-NO 67 0 min 2,0 C 3,5 C 7,1 km/h (2 Bft)
02.04.2023 05:55 3,5 C 11,5 C 3,9 C 3,5 C 3,4 C 0,0 C 89 % 87 % 1010,7 hPa 0,0 l/m 3,9 km/h (1 Bft) N-NO 22 0 min 1,9 C 3,4 C 2,6 km/h (1 Bft)
02.04.2023 06:00 3,4 C 11,5 C 3,8 C 3,4 C 3,4 C 0,0 C 89 % 87 % 1010,7 hPa 0,0 l/m 4,0 km/h (1 Bft) O 90 0 min 1,8 C 3,4 C 3,4 km/h (1 Bft)
02.04.2023 06:05 3,5 C 11,5 C 3,8 C 3,5 C 3,4 C 0,0 C 89 % 87 % 1010,9 hPa 0,0 l/m 3,7 km/h (1 Bft) O-NO 67 0 min 1,9 C 3,4 C 4,5 km/h (1 Bft)
02.04.2023 06:10 3,3 C 11,5 C 3,8 C 3,2 C 2,9 C 0,0 C 89 % 87 % 1010,9 hPa 0,0 l/m 4,3 km/h (1 Bft) O-NO 67 0 min 1,7 C 2,9 C 5,3 km/h (1 Bft)
02.04.2023 06:15 3,3 C 11,5 C 3,7 C 3,2 C 3,1 C 0,0 C 89 % 87 % 1010,9 hPa 0,0 l/m 4,0 km/h (1 Bft) N-NO 22 0 min 1,7 C 3,1 C 4,2 km/h (1 Bft)
02.04.2023 06:20 3,2 C 11,4 C 3,6 C 3,3 C 3,3 C 0,1 C 89 % 87 % 1010,9 hPa 0,0 l/m 3,4 km/h (1 Bft) N-NW 337 0 min 1,6 C 3,3 C 3,7 km/h (1 Bft)
02.04.2023 06:25 3,2 C 11,4 C 3,5 C 3,2 C 3,2 C 0,0 C 89 % 87 % 1011,4 hPa 0,0 l/m 3,4 km/h (1 Bft) O-NO 67 0 min 1,6 C 3,2 C 6,3 km/h (2 Bft)
02.04.2023 06:30 3,1 C 11,4 C 3,5 C 3,0 C 2,8 C 0,0 C 89 % 87 % 1011,4 hPa 0,0 l/m 4,0 km/h (1 Bft) N-NO 22 0 min 1,5 C 2,8 C 6,1 km/h (2 Bft)
02.04.2023 06:35 3,1 C 11,4 C 3,3 C 2,9 C 2,4 C 0,0 C 89 % 87 % 1011,4 hPa 0,0 l/m 4,5 km/h (1 Bft) NO 45 0 min 1,5 C 2,4 C 3,1 km/h (1 Bft)
02.04.2023 06:40 3,0 C 11,4 C 3,4 C 2,9 C 2,8 C 0,0 C 89 % 87 % 1011,4 hPa 0,0 l/m 3,9 km/h (1 Bft) N-NO 22 0 min 1,4 C 2,8 C 2,4 km/h (1 Bft)
02.04.2023 06:45 2,9 C 11,4 C 3,4 C 3,1 C 3,1 C 0,2 C 89 % 87 % 1011,7 hPa 0,0 l/m 3,1 km/h (1 Bft) O-NO 67 0 min 1,3 C 3,1 C 5,1 km/h (1 Bft)
02.04.2023 06:50 2,8 C 11,4 C 3,3 C 3,2 C 3,2 C 0,4 C 89 % 87 % 1011,7 hPa 0,0 l/m 2,9 km/h (1 Bft) NO 45 0 min 1,2 C 3,2 C 3,4 km/h (1 Bft)
02.04.2023 06:55 2,8 C 11,4 C 3,3 C 3,0 C 3,0 C 0,2 C 89 % 87 % 1011,7 hPa 0,0 l/m 3,1 km/h (1 Bft) N 360 5 min 1,2 C 3,0 C 5,1 km/h (1 Bft)
02.04.2023 07:00 2,8 C 11,4 C 3,1 C 3,0 C 3,0 C 0,2 C 89 % 87 % 1011,7 hPa 0,0 l/m 3,1 km/h (1 Bft) O-NO 67 0 min 1,2 C 3,0 C 3,5 km/h (1 Bft)
02.04.2023 07:05 2,7 C 11,4 C 3,1 C 2,8 C 2,8 C 0,1 C 89 % 87 % 1012,3 hPa 0,0 l/m 3,2 km/h (1 Bft) O-NO 67 0 min 1,1 C 2,8 C 4,8 km/h (1 Bft)
02.04.2023 07:10 2,6 C 11,4 C 3,1 C 2,8 C 2,8 C 0,2 C 89 % 87 % 1012,3 hPa 0,0 l/m 3,2 km/h (1 Bft) O-NO 67 0 min 1,0 C 2,8 C 3,5 km/h (1 Bft)
02.04.2023 07:15 2,6 C 11,4 C 3,1 C 3,1 C 3,1 C 0,5 C 89 % 87 % 1012,3 hPa 0,0 l/m 2,7 km/h (1 Bft) NO 45 0 min 1,0 C 3,1 C 6,8 km/h (2 Bft)
02.04.2023 07:20 2,7 C 11,4 C 3,1 C 3,0 C 3,0 C 0,3 C 89 % 87 % 1012,3 hPa 0,0 l/m 2,4 km/h (1 Bft) O 90 0 min 1,1 C 3,0 C 3,1 km/h (1 Bft)
02.04.2023 07:25 2,5 C 11,4 C 3,1 C 2,8 C 2,8 C 0,3 C 89 % 87 % 1012,8 hPa 0,0 l/m 3,1 km/h (1 Bft) NO 45 0 min 0,9 C 2,8 C 6,3 km/h (2 Bft)
02.04.2023 07:30 2,4 C 11,3 C 3,0 C 2,9 C 2,9 C 0,5 C 89 % 87 % 1012,8 hPa 0,0 l/m 2,9 km/h (1 Bft) N 360 0 min 0,8 C 2,9 C 3,4 km/h (1 Bft)
02.04.2023 07:35 2,4 C 11,3 C 3,0 C 2,9 C 2,9 C 0,5 C 89 % 87 % 1012,8 hPa 0,0 l/m 2,9 km/h (1 Bft) N-NW 337 0 min 0,8 C 2,9 C 1,9 km/h (1 Bft)
02.04.2023 07:40 2,4 C 11,3 C 2,9 C 2,8 C 2,8 C 0,4 C 89 % 87 % 1012,8 hPa 0,0 l/m 2,9 km/h (1 Bft) NO 45 0 min 0,8 C 2,8 C 4,3 km/h (1 Bft)
02.04.2023 07:45 2,3 C 11,3 C 2,8 C 2,7 C 2,7 C 0,4 C 89 % 86 % 1013,2 hPa 0,0 l/m 2,9 km/h (1 Bft) NW 315 0 min 0,7 C 2,7 C 4,5 km/h (1 Bft)
02.04.2023 07:50 2,3 C 11,3 C 2,8 C 2,4 C 2,4 C 0,1 C 89 % 86 % 1013,2 hPa 0,0 l/m 3,4 km/h (1 Bft) O-NO 67 0 min 0,7 C 2,4 C 3,2 km/h (1 Bft)
02.04.2023 07:55 2,3 C 11,3 C 2,7 C 2,2 C 1,9 C 0,0 C 89 % 86 % 1013,2 hPa 0,0 l/m 4,2 km/h (1 Bft) NO 45 0 min 0,7 C 1,9 C 4,3 km/h (1 Bft)
02.04.2023 08:00 2,3 C 11,1 C 2,7 C 2,2 C 1,9 C 0,0 C 89 % 86 % 1013,2 hPa 0,0 l/m 4,2 km/h (1 Bft) NO 45 0 min 0,7 C 1,9 C 6,4 km/h (2 Bft)
02.04.2023 08:05 2,1 C 11,1 C 2,7 C 2,0 C 1,8 C 0,0 C 89 % 86 % 1013,6 hPa 0,0 l/m 4,3 km/h (1 Bft) NO 45 0 min 0,5 C 1,8 C 4,7 km/h (1 Bft)
02.04.2023 08:10 2,1 C 11,1 C 2,7 C 2,0 C 1,8 C 0,0 C 89 % 86 % 1013,6 hPa 0,0 l/m 4,3 km/h (1 Bft) NO 45 0 min 0,5 C 1,8 C 6,4 km/h (2 Bft)
02.04.2023 08:15 2,1 C 11,1 C 2,7 C 2,1 C 2,1 C 0,0 C 89 % 86 % 1013,6 hPa 0,0 l/m 3,5 km/h (1 Bft) O-SO 112 0 min 0,5 C 2,1 C 2,4 km/h (1 Bft)
02.04.2023 08:20 2,0 C 11,1 C 2,6 C 1,9 C 1,7 C 0,0 C 89 % 86 % 1013,6 hPa 0,0 l/m 4,3 km/h (1 Bft) NO 45 0 min 0,4 C 1,7 C 8,2 km/h (2 Bft)
02.04.2023 08:25 2,0 C 11,1 C 2,5 C 1,7 C 1,2 C 0,0 C 89 % 86 % 1014,1 hPa 0,0 l/m 5,0 km/h (1 Bft) NO 45 0 min 0,4 C -0,2 C 13,2 km/h (3 Bft)
02.04.2023 08:30 1,9 C 11,1 C 2,4 C 1,7 C 1,3 C 0,0 C 89 % 86 % 1014,1 hPa 0,0 l/m 4,7 km/h (1 Bft) W-NW 292 0 min 0,3 C 0,0 C 3,2 km/h (1 Bft)
02.04.2023 08:35 1,9 C 11,0 C 2,4 C 1,8 C 1,7 C 0,0 C 89 % 86 % 1014,1 hPa 0,0 l/m 3,9 km/h (1 Bft) NO 45 0 min 0,3 C 1,7 C 5,6 km/h (1 Bft)
02.04.2023 08:40 1,9 C 11,0 C 2,4 C 2,1 C 2,1 C 0,2 C 89 % 86 % 1014,1 hPa 0,0 l/m 3,2 km/h (1 Bft) NO 45 0 min 0,3 C 2,1 C 4,5 km/h (1 Bft)
02.04.2023 08:45 1,9 C 11,0 C 2,4 C 2,1 C 2,1 C 0,2 C 89 % 86 % 1014,7 hPa 0,0 l/m 2,9 km/h (1 Bft) NO 45 0 min 0,3 C 2,1 C 3,5 km/h (1 Bft)
02.04.2023 08:50 1,8 C 11,0 C 2,4 C 1,8 C 1,8 C 0,0 C 89 % 86 % 1014,7 hPa 0,0 l/m 3,4 km/h (1 Bft) NO 45 0 min 0,2 C 1,8 C 4,2 km/h (1 Bft)
02.04.2023 08:55 1,7 C 11,0 C 2,4 C 1,8 C 1,8 C 0,1 C 89 % 86 % 1014,7 hPa 0,0 l/m 3,4 km/h (1 Bft) O-NO 67 0 min 0,1 C 1,8 C 4,5 km/h (1 Bft)
02.04.2023 09:00 1,7 C 11,0 C 2,4 C 1,7 C 1,6 C 0,0 C 89 % 86 % 1014,7 hPa 0,0 l/m 3,7 km/h (1 Bft) O-NO 67 0 min 0,1 C 1,6 C 3,2 km/h (1 Bft)
02.04.2023 09:05 1,7 C 11,0 C 2,3 C 1,6 C 1,4 C 0,0 C 89 % 86 % 1015,1 hPa 0,0 l/m 4,0 km/h (1 Bft) N-NO 22 0 min 0,1 C 1,4 C 3,9 km/h (1 Bft)
02.04.2023 09:10 1,6 C 11,0 C 2,4 C 1,6 C 1,6 C 0,0 C 89 % 86 % 1015,1 hPa 0,0 l/m 3,9 km/h (1 Bft) O-NO 67 0 min -0,0 C 1,6 C 2,9 km/h (1 Bft)
02.04.2023 09:15 1,6 C 11,0 C 2,3 C 1,5 C 1,4 C 0,0 C 89 % 86 % 1015,1 hPa 0,0 l/m 4,0 km/h (1 Bft) NO 45 0 min -0,0 C 1,4 C 7,4 km/h (2 Bft)
02.04.2023 09:20 1,6 C 11,0 C 2,2 C 1,4 C 0,9 C 0,0 C 89 % 86 % 1015,1 hPa 0,0 l/m 5,0 km/h (1 Bft) N-NO 22 0 min -0,0 C -0,6 C 6,0 km/h (2 Bft)
02.04.2023 09:25 1,5 C 11,0 C 2,2 C 1,3 C 1,0 C 0,0 C 89 % 86 % 1015,9 hPa 0,0 l/m 4,8 km/h (1 Bft) W-NW 292 0 min -0,1 C -0,4 C 4,8 km/h (1 Bft)
02.04.2023 09:30 1,6 C 11,0 C 2,3 C 1,5 C 1,3 C 0,0 C 89 % 86 % 1015,9 hPa 0,0 l/m 4,2 km/h (1 Bft) O-NO 67 0 min -0,0 C 1,3 C 4,3 km/h (1 Bft)
02.04.2023 09:35 1,5 C 11,0 C 2,3 C 1,8 C 1,8 C 0,3 C 89 % 86 % 1015,9 hPa 0,0 l/m 3,2 km/h (1 Bft) O 90 0 min -0,1 C 1,8 C 6,6 km/h (2 Bft)
02.04.2023 09:40 1,5 C 10,9 C 2,3 C 1,8 C 1,8 C 0,3 C 89 % 86 % 1015,9 hPa 0,0 l/m 3,4 km/h (1 Bft) O-NO 67 0 min -0,1 C 1,8 C 4,5 km/h (1 Bft)
02.04.2023 09:45 1,5 C 10,9 C 2,3 C 1,3 C 0,9 C 0,0 C 89 % 86 % 1016,1 hPa 0,0 l/m 4,7 km/h (1 Bft) O 90 0 min -0,1 C -0,4 C 7,1 km/h (2 Bft)
02.04.2023 09:50 1,5 C 10,9 C 2,3 C 1,2 C 0,7 C 0,0 C 89 % 86 % 1016,1 hPa 0,0 l/m 5,3 km/h (1 Bft) O-NO 67 0 min -0,1 C -0,9 C 7,1 km/h (2 Bft)
02.04.2023 09:55 1,5 C 10,9 C 2,4 C 1,4 C 1,1 C 0,0 C 89 % 86 % 1016,1 hPa 0,0 l/m 4,7 km/h (1 Bft) O-NO 67 0 min -0,1 C -0,2 C 5,5 km/h (1 Bft)
02.04.2023 10:00 1,5 C 10,9 C 2,4 C 1,7 C 1,7 C 0,2 C 89 % 86 % 1016,1 hPa 0,0 l/m 3,5 km/h (1 Bft) O-NO 67 0 min -0,1 C 1,7 C 4,2 km/h (1 Bft)
02.04.2023 10:05 1,5 C 10,9 C 2,3 C 1,9 C 1,9 C 0,4 C 89 % 86 % 1016,6 hPa 0,0 l/m 3,2 km/h (1 Bft) NO 45 0 min -0,1 C 1,9 C 6,3 km/h (2 Bft)
02.04.2023 10:10 1,5 C 10,9 C 2,2 C 1,4 C 1,1 C 0,0 C 89 % 86 % 1016,6 hPa 0,0 l/m 4,8 km/h (1 Bft) NO 45 0 min -0,1 C -0,2 C 7,7 km/h (2 Bft)
02.04.2023 10:15 1,5 C 10,7 C 2,2 C 1,3 C 1,0 C 0,0 C 89 % 86 % 1016,6 hPa 0,0 l/m 5,3 km/h (1 Bft) NO 45 0 min -0,1 C -0,6 C 3,1 km/h (1 Bft)
02.04.2023 10:20 1,5 C 10,7 C 2,3 C 1,8 C 1,8 C 0,3 C 89 % 86 % 1016,6 hPa 0,0 l/m 3,9 km/h (1 Bft) O 90 0 min -0,1 C 1,8 C 4,3 km/h (1 Bft)
02.04.2023 10:25 1,4 C 10,7 C 2,4 C 2,4 C 2,4 C 1,0 C 89 % 86 % 1017,2 hPa 0,0 l/m 3,2 km/h (1 Bft) NO 45 0 min -0,2 C 2,4 C 3,5 km/h (1 Bft)
02.04.2023 10:30 1,5 C 10,6 C 2,5 C 2,7 C 2,7 C 1,2 C 89 % 86 % 1017,2 hPa 0,0 l/m 3,2 km/h (1 Bft) O-NO 67 0 min -0,1 C 2,7 C 5,6 km/h (1 Bft)
02.04.2023 10:35 1,5 C 10,6 C 2,7 C 3,2 C 3,2 C 1,7 C 89 % 86 % 1017,2 hPa 0,0 l/m 2,9 km/h (1 Bft) N-NO 22 0 min -0,1 C 3,2 C 5,0 km/h (1 Bft)
02.04.2023 10:40 1,6 C 10,6 C 2,7 C 3,2 C 3,2 C 1,6 C 89 % 86 % 1017,2 hPa 0,0 l/m 3,4 km/h (1 Bft) O 90 0 min -0,0 C 3,2 C 3,4 km/h (1 Bft)
02.04.2023 10:45 1,6 C 10,6 C 2,9 C 4,0 C 4,0 C 2,4 C 89 % 86 % 1017,2 hPa 0,0 l/m 2,1 km/h (1 Bft) W-SW 247 0 min -0,0 C 4,0 C 0,0 km/h (0 Bft)
02.04.2023 10:50 1,6 C 10,6 C 2,9 C 4,1 C 4,1 C 2,5 C 89 % 86 % 1017,2 hPa 0,0 l/m 1,8 km/h (1 Bft) NO 45 0 min -0,0 C 4,1 C 4,2 km/h (1 Bft)
02.04.2023 10:55 1,6 C 10,6 C 3,1 C 4,4 C 4,4 C 2,8 C 89 % 86 % 1017,2 hPa 0,0 l/m 2,4 km/h (1 Bft) O-NO 67 0 min -0,0 C 4,4 C 1,8 km/h (1 Bft)
02.04.2023 11:00 1,7 C 10,6 C 3,2 C 4,6 C 4,6 C 2,9 C 89 % 79 % 1017,2 hPa 0,0 l/m 3,1 km/h (1 Bft) O-NO 67 0 min 0,1 C 4,6 C 6,0 km/h (2 Bft)
02.04.2023 11:05 1,9 C 10,5 C 3,1 C 3,8 C 3,8 C 1,9 C 89 % 76 % 1017,7 hPa 0,0 l/m 5,0 km/h (1 Bft) NO 45 0 min 0,3 C 2,7 C 4,8 km/h (1 Bft)
02.04.2023 11:10 1,8 C 10,5 C 3,3 C 3,6 C 3,6 C 1,8 C 89 % 75 % 1017,7 hPa 0,0 l/m 5,5 km/h (1 Bft) O 90 0 min 0,2 C 2,3 C 3,7 km/h (1 Bft)
02.04.2023 11:15 2,0 C 10,5 C 3,2 C 4,3 C 4,3 C 2,3 C 89 % 73 % 1017,7 hPa 0,0 l/m 4,3 km/h (1 Bft) N-NO 22 0 min 0,4 C 4,3 C 5,1 km/h (1 Bft)
02.04.2023 11:20 2,0 C 10,5 C 3,1 C 4,3 C 4,3 C 2,3 C 89 % 72 % 1017,7 hPa 0,0 l/m 3,7 km/h (1 Bft) N-NO 22 0 min 0,4 C 4,3 C 4,0 km/h (1 Bft)
02.04.2023 11:25 2,1 C 10,3 C 3,0 C 4,2 C 4,2 C 2,1 C 89 % 71 % 1018,0 hPa 0,0 l/m 3,1 km/h (1 Bft) O-NO 67 0 min 0,5 C 4,2 C 3,1 km/h (1 Bft)
02.04.2023 11:30 2,0 C 10,3 C 3,0 C 4,1 C 4,1 C 2,1 C 89 % 70 % 1018,0 hPa 0,0 l/m 3,1 km/h (1 Bft) O 90 0 min 0,4 C 4,1 C 3,1 km/h (1 Bft)
02.04.2023 11:35 2,1 C 10,3 C 3,1 C 4,1 C 4,1 C 2,0 C 89 % 71 % 1018,0 hPa 0,0 l/m 2,3 km/h (1 Bft) NO 45 0 min 0,5 C 4,1 C 2,9 km/h (1 Bft)
02.04.2023 11:40 2,1 C 10,3 C 3,1 C 4,2 C 4,2 C 2,1 C 89 % 70 % 1018,0 hPa 0,0 l/m 2,1 km/h (1 Bft) NO 45 0 min 0,5 C 4,2 C 5,3 km/h (1 Bft)
02.04.2023 11:45 2,2 C 10,2 C 3,1 C 4,2 C 4,2 C 2,0 C 89 % 69 % 1018,7 hPa 0,0 l/m 1,4 km/h (1 Bft) O-NO 67 0 min 0,6 C 4,2 C 0,0 km/h (0 Bft)
02.04.2023 11:50 2,3 C 10,2 C 3,1 C 4,4 C 4,4 C 2,1 C 89 % 68 % 1018,7 hPa 0,0 l/m 0,8 km/h (0 Bft) O-SO 112 0 min 0,7 C 4,4 C 2,1 km/h (1 Bft)
02.04.2023 11:55 2,3 C 10,2 C 3,3 C 4,6 C 4,6 C 2,3 C 89 % 69 % 1018,7 hPa 0,0 l/m 0,3 km/h (0 Bft) NO 45 0 min 0,7 C 4,6 C 0,0 km/h (0 Bft)
02.04.2023 12:00 2,3 C 10,2 C 3,3 C 5,0 C 5,0 C 2,7 C 89 % 68 % 1018,7 hPa 0,0 l/m 0,6 km/h (0 Bft) NO 45 0 min 0,7 C 5,0 C 4,0 km/h (1 Bft)
02.04.2023 12:05 2,4 C 10,2 C 3,5 C 5,0 C 5,0 C 2,6 C 89 % 68 % 1019,1 hPa 0,0 l/m 0,8 km/h (0 Bft) N 360 0 min 0,8 C 5,0 C 0,0 km/h (0 Bft)
02.04.2023 12:10 2,4 C 10,2 C 3,4 C 5,0 C 5,0 C 2,6 C 89 % 67 % 1019,1 hPa 0,0 l/m 0,8 km/h (0 Bft) SO 135 0 min 0,8 C 5,0 C 0,0 km/h (0 Bft)
02.04.2023 12:15 2,4 C 10,2 C 3,2 C 4,8 C 4,8 C 2,4 C 89 % 67 % 1019,1 hPa 0,0 l/m 0,5 km/h (0 Bft) N-NO 22 0 min 0,8 C 4,8 C 0,0 km/h (0 Bft)
02.04.2023 12:20 2,4 C 10,2 C 3,2 C 4,6 C 4,6 C 2,2 C 89 % 68 % 1019,1 hPa 0,0 l/m 0,3 km/h (0 Bft) NO 45 0 min 0,8 C 4,6 C 0,0 km/h (0 Bft)
02.04.2023 12:25 2,5 C 10,2 C 3,1 C 4,6 C 4,6 C 2,1 C 89 % 68 % 1019,6 hPa 0,0 l/m 0,2 km/h (0 Bft) O-NO 67 0 min 0,9 C 4,6 C 0,0 km/h (0 Bft)
02.04.2023 12:30 2,5 C 10,2 C 3,1 C 4,5 C 4,5 C 2,0 C 89 % 68 % 1019,6 hPa 0,0 l/m 0,2 km/h (0 Bft) NW 315 0 min 0,9 C 4,5 C 0,0 km/h (0 Bft)
02.04.2023 12:35 2,5 C 10,2 C 2,8 C 4,1 C 4,1 C 1,6 C 89 % 68 % 1019,6 hPa 0,0 l/m 0,2 km/h (0 Bft) N-NO 22 0 min 0,9 C 4,1 C 0,0 km/h (0 Bft)
02.04.2023 12:40 2,4 C 10,2 C 2,8 C 3,9 C 3,9 C 1,5 C 89 % 68 % 1019,6 hPa 0,0 l/m 0,2 km/h (0 Bft) O-NO 67 0 min 0,8 C 3,9 C 1,6 km/h (1 Bft)
02.04.2023 12:45 2,4 C 10,2 C 3,0 C 3,8 C 3,8 C 1,4 C 89 % 69 % 1019,9 hPa 0,0 l/m 0,0 km/h (0 Bft) N 360 0 min 0,8 C 3,8 C 0,0 km/h (0 Bft)
02.04.2023 12:50 2,5 C 10,2 C 3,1 C 3,9 C 3,9 C 1,4 C 89 % 70 % 1019,9 hPa 0,0 l/m 0,0 km/h (0 Bft) O 90 0 min 0,9 C 3,9 C 0,0 km/h (0 Bft)
02.04.2023 12:55 2,5 C 10,2 C 3,1 C 4,0 C 4,0 C 1,5 C 89 % 70 % 1019,9 hPa 0,0 l/m 0,0 km/h (0 Bft) O 90 0 min 0,9 C 4,0 C 0,0 km/h (0 Bft)
02.04.2023 13:00 2,5 C 10,2 C 3,1 C 4,0 C 4,0 C 1,5 C 89 % 70 % 1019,9 hPa 0,0 l/m 0,0 km/h (0 Bft) O-NO 67 0 min 0,9 C 4,0 C 0,0 km/h (0 Bft)
02.04.2023 13:05 2,5 C 10,2 C 3,1 C 4,0 C 4,0 C 1,5 C 89 % 70 % 1020,4 hPa 0,0 l/m 0,0 km/h (0 Bft) O 90 0 min 0,9 C 4,0 C 0,0 km/h (0 Bft)
02.04.2023 13:10 2,6 C 10,2 C 3,1 C 4,0 C 4,0 C 1,4 C 89 % 70 % 1020,4 hPa 0,0 l/m 0,0 km/h (0 Bft) N 360 0 min 1,0 C 4,0 C 0,0 km/h (0 Bft)
02.04.2023 13:15 2,6 C 10,2 C 3,1 C 4,0 C 4,0 C 1,4 C 89 % 69 % 1020,4 hPa 0,0 l/m 0,2 km/h (0 Bft) NO 45 0 min 1,0 C 4,0 C 0,0 km/h (0 Bft)
02.04.2023 13:20 2,5 C 10,1 C 3,1 C 4,0 C 4,0 C 1,5 C 89 % 69 % 1020,4 hPa 0,0 l/m 0,2 km/h (0 Bft) O-SO 112 0 min 0,9 C 4,0 C 0,0 km/h (0 Bft)
02.04.2023 13:25 2,5 C 10,1 C 3,1 C 4,0 C 4,0 C 1,5 C 89 % 69 % 1020,4 hPa 0,0 l/m 0,0 km/h (0 Bft) O-NO 67 0 min 0,9 C 4,0 C 0,0 km/h (0 Bft)
02.04.2023 13:30 2,5 C 10,1 C 3,1 C 4,0 C 4,0 C 1,5 C 89 % 69 % 1020,4 hPa 0,0 l/m 0,0 km/h (0 Bft) N-NW 337 0 min 0,9 C 4,0 C 0,0 km/h (0 Bft)
02.04.2023 13:35 2,5 C 10,1 C 3,2 C 4,0 C 4,0 C 1,5 C 89 % 69 % 1020,4 hPa 0,0 l/m 0,0 km/h (0 Bft) NO 45 0 min 0,9 C 4,0 C 0,0 km/h (0 Bft)
02.04.2023 13:40 2,5 C 10,1 C 3,2 C 4,1 C 4,1 C 1,6 C 89 % 69 % 1020,4 hPa 0,0 l/m 0,0 km/h (0 Bft) NO 45 0 min 0,9 C 4,1 C 0,0 km/h (0 Bft)
02.04.2023 13:45 2,5 C 10,1 C 3,3 C 4,1 C 4,1 C 1,6 C 89 % 69 % 1020,7 hPa 0,0 l/m 0,0 km/h (0 Bft) NO 45 0 min 0,9 C 4,1 C 0,0 km/h (0 Bft)
02.04.2023 13:50 2,5 C 10,1 C 3,5 C 4,3 C 4,3 C 1,8 C 89 % 69 % 1020,7 hPa 0,0 l/m 0,0 km/h (0 Bft) NO 45 0 min 0,9 C 4,3 C 0,0 km/h (0 Bft)
02.04.2023 13:55 2,5 C 10,1 C 3,3 C 4,5 C 4,5 C 2,0 C 89 % 68 % 1020,7 hPa 0,0 l/m 0,0 km/h (0 Bft) N-NO 22 0 min 0,9 C 4,5 C 0,0 km/h (0 Bft)
02.04.2023 14:00 2,5 C 10,1 C 3,2 C 4,4 C 4,4 C 1,9 C 89 % 68 % 1020,7 hPa 0,0 l/m 0,0 km/h (0 Bft) N 360 0 min 0,9 C 4,4 C 0,0 km/h (0 Bft)
02.04.2023 14:05 2,8 C 10,0 C 3,3 C 4,3 C 4,3 C 1,5 C 88 % 68 % 1021,1 hPa 0,0 l/m 0,0 km/h (0 Bft) N-NO 22 0 min 1,0 C 4,3 C 0,0 km/h (0 Bft)
02.04.2023 14:10 2,8 C 10,0 C 3,2 C 4,2 C 4,2 C 1,4 C 88 % 68 % 1021,1 hPa 0,0 l/m 0,0 km/h (0 Bft) NW 315 0 min 1,0 C 4,2 C 0,0 km/h (0 Bft)
02.04.2023 14:15 2,9 C 10,0 C 3,4 C 4,3 C 4,3 C 1,4 C 88 % 69 % 1021,1 hPa 0,0 l/m 0,0 km/h (0 Bft) NO 45 0 min 1,1 C 4,3 C 0,0 km/h (0 Bft)
02.04.2023 14:20 2,9 C 10,0 C 3,4 C 4,3 C 4,3 C 1,4 C 88 % 69 % 1021,1 hPa 0,0 l/m 0,0 km/h (0 Bft) NW 315 0 min 1,1 C 4,3 C 1,6 km/h (1 Bft)
02.04.2023 14:25 3,1 C 10,0 C 3,7 C 4,6 C 4,6 C 1,5 C 88 % 68 % 1021,1 hPa 0,0 l/m 0,0 km/h (0 Bft) O-NO 67 0 min 1,3 C 4,6 C 0,0 km/h (0 Bft)
02.04.2023 14:30 3,0 C 10,0 C 3,6 C 5,0 C 5,0 C 2,0 C 88 % 68 % 1021,1 hPa 0,0 l/m 0,0 km/h (0 Bft) NO 45 0 min 1,2 C 5,0 C 0,0 km/h (0 Bft)
02.04.2023 14:35 3,1 C 10,0 C 3,6 C 5,0 C 5,0 C 1,9 C 88 % 67 % 1021,1 hPa 0,0 l/m 0,0 km/h (0 Bft) O-NO 67 0 min 1,3 C 5,0 C 0,0 km/h (0 Bft)
02.04.2023 14:40 3,1 C 10,0 C 3,6 C 5,0 C 5,0 C 1,9 C 88 % 67 % 1021,1 hPa 0,0 l/m 0,0 km/h (0 Bft) O-NO 67 0 min 1,3 C 5,0 C 0,0 km/h (0 Bft)
02.04.2023 14:45 3,1 C 9,9 C 3,8 C 5,0 C 5,0 C 1,9 C 88 % 68 % 1021,7 hPa 0,0 l/m 0,0 km/h (0 Bft) NO 45 0 min 1,3 C 5,0 C 0,0 km/h (0 Bft)
02.04.2023 14:50 3,2 C 9,9 C 3,9 C 5,2 C 5,2 C 2,0 C 88 % 68 % 1021,7 hPa 0,0 l/m 0,0 km/h (0 Bft) SO 135 0 min 1,4 C 5,2 C 0,0 km/h (0 Bft)
02.04.2023 14:55 3,3 C 9,9 C 4,3 C 5,6 C 5,6 C 2,3 C 88 % 67 % 1021,7 hPa 0,0 l/m 0,0 km/h (0 Bft) N 360 0 min 1,5 C 5,6 C 0,0 km/h (0 Bft)
02.04.2023 15:00 3,5 C 9,8 C 4,2 C 5,8 C 5,8 C 2,3 C 88 % 66 % 1021,7 hPa 0,0 l/m 0,0 km/h (0 Bft) O-NO 67 0 min 1,7 C 5,8 C 0,0 km/h (0 Bft)
02.04.2023 15:05 3,4 C 9,8 C 4,2 C 5,7 C 5,7 C 2,3 C 87 % 66 % 1021,8 hPa 0,0 l/m 0,0 km/h (0 Bft) N 360 0 min 1,4 C 5,7 C 0,0 km/h (0 Bft)
02.04.2023 15:10 3,5 C 9,8 C 4,5 C 5,8 C 5,8 C 2,3 C 87 % 67 % 1021,8 hPa 0,0 l/m 0,0 km/h (0 Bft) NO 45 0 min 1,5 C 5,8 C 0,0 km/h (0 Bft)
02.04.2023 15:15 3,8 C 9,8 C 5,1 C 6,5 C 6,5 C 2,7 C 88 % 68 % 1021,8 hPa 0,0 l/m 0,0 km/h (0 Bft) O-NO 67 0 min 2,0 C 6,5 C 0,0 km/h (0 Bft)
02.04.2023 15:20 3,9 C 9,8 C 4,8 C 6,8 C 6,8 C 2,9 C 88 % 65 % 1021,8 hPa 0,0 l/m 0,0 km/h (0 Bft) NO 45 0 min 2,1 C 6,8 C 0,0 km/h (0 Bft)
02.04.2023 15:25 3,9 C 9,8 C 4,5 C 6,8 C 6,8 C 2,9 C 88 % 65 % 1021,8 hPa 0,0 l/m 0,0 km/h (0 Bft) NW 315 0 min 2,1 C 6,8 C 0,0 km/h (0 Bft)
02.04.2023 15:30 3,9 C 9,8 C 4,5 C 6,5 C 6,5 C 2,6 C 87 % 65 % 1021,8 hPa 0,0 l/m 0,0 km/h (0 Bft) S-SW 202 0 min 1,9 C 6,5 C 0,0 km/h (0 Bft)
02.04.2023 15:35 3,9 C 9,8 C 4,5 C 6,1 C 6,1 C 2,2 C 87 % 65 % 1021,8 hPa 0,0 l/m 0,0 km/h (0 Bft) NO 45 0 min 1,9 C 6,1 C 0,0 km/h (0 Bft)
02.04.2023 15:40 3,9 C 9,8 C 4,4 C 6,0 C 6,0 C 2,1 C 87 % 65 % 1021,8 hPa 0,0 l/m 0,0 km/h (0 Bft) W-NW 292 0 min 1,9 C 6,0 C 0,0 km/h (0 Bft)
02.04.2023 15:45 3,9 C 9,8 C 4,2 C 5,6 C 5,6 C 1,7 C 86 % 64 % 1022,1 hPa 0,0 l/m 0,0 km/h (0 Bft) SW 225 0 min 1,8 C 5,6 C 0,0 km/h (0 Bft)
02.04.2023 15:50 3,8 C 9,8 C 4,4 C 5,6 C 5,6 C 1,8 C 86 % 65 % 1022,1 hPa 0,0 l/m 0,0 km/h (0 Bft) O-NO 67 0 min 1,7 C 5,6 C 0,0 km/h (0 Bft)
02.04.2023 15:55 3,9 C 9,8 C 4,5 C 5,7 C 5,7 C 1,8 C 86 % 66 % 1022,1 hPa 0,0 l/m 0,0 km/h (0 Bft) O-SO 112 0 min 1,8 C 5,7 C 0,0 km/h (0 Bft)
02.04.2023 16:00 4,0 C 9,8 C 4,5 C 5,7 C 5,7 C 1,7 C 85 % 66 % 1022,1 hPa 0,0 l/m 0,0 km/h (0 Bft) O 90 0 min 1,7 C 5,7 C 0,0 km/h (0 Bft)
02.04.2023 16:05 4,0 C 9,7 C 4,4 C 5,6 C 5,6 C 1,6 C 85 % 65 % 1022,3 hPa 0,0 l/m 0,0 km/h (0 Bft) N-NO 22 0 min 1,7 C 5,6 C 0,0 km/h (0 Bft)
02.04.2023 16:11 4,0 C 9,8 C 4,2 C 5,4 C 5,4 C 1,4 C 85 % 64 % 1022,3 hPa 0,0 l/m 0,0 km/h (0 Bft) NW 315 0 min 1,7 C 5,4 C 0,0 km/h (0 Bft)
02.04.2023 16:15 4,0 C 9,8 C 4,2 C 5,4 C 5,4 C 1,4 C 85 % 64 % 1022,3 hPa 0,0 l/m 0,0 km/h (0 Bft) NW 315 0 min 1,7 C 5,4 C 0,0 km/h (0 Bft)
02.04.2023 16:20 4,1 C 9,8 C 4,3 C 5,3 C 5,3 C 1,2 C 84 % 64 % 1022,3 hPa 0,0 l/m 0,0 km/h (0 Bft) W 270 0 min 1,6 C 5,3 C 0,0 km/h (0 Bft)
02.04.2023 16:25 4,0 C 9,8 C 4,3 C 5,2 C 5,2 C 1,2 C 84 % 64 % 1023,0 hPa 0,0 l/m 0,2 km/h (0 Bft) N 360 0 min 1,5 C 5,2 C 0,0 km/h (0 Bft)
02.04.2023 16:30 4,1 C 9,7 C 4,2 C 5,2 C 5,2 C 1,1 C 84 % 62 % 1023,0 hPa 0,0 l/m 0,2 km/h (0 Bft) O-SO 112 0 min 1,6 C 5,2 C 0,0 km/h (0 Bft)
02.04.2023 16:35 4,1 C 9,8 C 4,4 C 5,2 C 5,2 C 1,1 C 83 % 61 % 1023,0 hPa 0,0 l/m 0,3 km/h (0 Bft) N-NO 22 0 min 1,5 C 5,2 C 0,0 km/h (0 Bft)
02.04.2023 16:40 4,1 C 9,7 C 4,4 C 5,2 C 5,2 C 1,1 C 83 % 60 % 1023,0 hPa 0,0 l/m 0,3 km/h (0 Bft) NO 45 0 min 1,5 C 5,2 C 0,0 km/h (0 Bft)
02.04.2023 16:45 4,1 C 9,7 C 4,3 C 5,2 C 5,2 C 1,1 C 83 % 58 % 1023,2 hPa 0,0 l/m 0,3 km/h (0 Bft) N-NO 22 0 min 1,5 C 5,2 C 0,0 km/h (0 Bft)
02.04.2023 16:50 4,2 C 9,7 C 4,3 C 5,2 C 5,2 C 1,0 C 82 % 56 % 1023,2 hPa 0,0 l/m 0,6 km/h (0 Bft) W-SW 247 0 min 1,4 C 5,2 C 3,1 km/h (1 Bft)
02.04.2023 16:55 4,2 C 9,7 C 4,4 C 5,2 C 5,2 C 1,0 C 81 % 57 % 1023,2 hPa 0,0 l/m 0,5 km/h (0 Bft) NO 45 0 min 1,2 C 5,2 C 0,0 km/h (0 Bft)
02.04.2023 17:00 4,3 C 9,7 C 4,3 C 5,2 C 5,2 C 0,9 C 81 % 56 % 1023,2 hPa 0,0 l/m 0,5 km/h (0 Bft) O-SO 112 0 min 1,3 C 5,2 C 0,0 km/h (0 Bft)
02.04.2023 17:05 4,3 C 9,7 C 4,3 C 5,2 C 5,2 C 0,9 C 80 % 56 % 1022,8 hPa 0,0 l/m 0,5 km/h (0 Bft) O-NO 67 0 min 1,2 C 5,2 C 1,6 km/h (1 Bft)
02.04.2023 17:10 4,3 C 9,7 C 4,5 C 5,2 C 5,2 C 0,9 C 80 % 56 % 1022,8 hPa 0,0 l/m 0,5 km/h (0 Bft) N-NO 22 0 min 1,2 C 5,2 C 0,0 km/h (0 Bft)
02.04.2023 17:15 4,3 C 9,7 C 4,5 C 5,3 C 5,3 C 1,0 C 80 % 56 % 1022,8 hPa 0,0 l/m 0,5 km/h (0 Bft) O-NO 67 0 min 1,2 C 5,3 C 0,0 km/h (0 Bft)
02.04.2023 17:20 4,4 C 9,7 C 4,5 C 5,4 C 5,4 C 1,0 C 80 % 58 % 1022,8 hPa 0,0 l/m 0,2 km/h (0 Bft) O-SO 112 0 min 1,3 C 5,4 C 0,0 km/h (0 Bft)
02.04.2023 17:25 4,4 C 9,7 C 4,4 C 5,4 C 5,4 C 1,0 C 79 % 56 % 1023,4 hPa 0,0 l/m 0,6 km/h (0 Bft) NO 45 0 min 1,1 C 5,4 C 5,5 km/h (1 Bft)
02.04.2023 17:30 4,3 C 9,7 C 4,3 C 5,2 C 5,2 C 0,9 C 79 % 56 % 1023,4 hPa 0,0 l/m 0,6 km/h (0 Bft) N-NO 22 0 min 1,0 C 5,2 C 0,0 km/h (0 Bft)
02.04.2023 17:35 4,3 C 9,7 C 4,2 C 5,2 C 5,2 C 0,9 C 78 % 55 % 1023,4 hPa 0,0 l/m 0,5 km/h (0 Bft) N-NO 22 0 min 0,8 C 5,2 C 0,0 km/h (0 Bft)
02.04.2023 17:40 4,3 C 9,7 C 4,2 C 5,1 C 5,1 C 0,8 C 78 % 55 % 1023,4 hPa 0,0 l/m 0,3 km/h (0 Bft) NO 45 0 min 0,8 C 5,1 C 0,0 km/h (0 Bft)
02.04.2023 17:45 4,3 C 9,7 C 4,2 C 5,0 C 5,0 C 0,7 C 78 % 56 % 1023,4 hPa 0,0 l/m 0,3 km/h (0 Bft) O-NO 67 0 min 0,8 C 5,0 C 0,0 km/h (0 Bft)
02.04.2023 17:50 4,2 C 9,7 C 4,2 C 5,0 C 5,0 C 0,8 C 78 % 55 % 1023,4 hPa 0,0 l/m 0,0 km/h (0 Bft) O-NO 67 0 min 0,7 C 5,0 C 0,0 km/h (0 Bft)
02.04.2023 17:55 4,3 C 9,7 C 4,2 C 5,0 C 5,0 C 0,7 C 78 % 56 % 1023,4 hPa 0,0 l/m 0,0 km/h (0 Bft) NO 45 0 min 0,8 C 5,0 C 0,0 km/h (0 Bft)
02.04.2023 18:00 4,2 C 9,6 C 4,1 C 4,8 C 4,8 C 0,6 C 78 % 56 % 1023,4 hPa 0,0 l/m 0,0 km/h (0 Bft) NO 45 0 min 0,7 C 4,8 C 0,0 km/h (0 Bft)
02.04.2023 18:05 4,3 C 9,6 C 4,1 C 4,7 C 4,7 C 0,4 C 78 % 54 % 1023,5 hPa 0,0 l/m 0,5 km/h (0 Bft) NO 45 0 min 0,8 C 4,7 C 0,0 km/h (0 Bft)
02.04.2023 18:10 4,2 C 9,6 C 4,1 C 4,6 C 4,6 C 0,4 C 77 % 54 % 1023,5 hPa 0,0 l/m 1,0 km/h (0 Bft) O-NO 67 0 min 0,5 C 4,6 C 2,4 km/h (1 Bft)
02.04.2023 18:15 4,1 C 9,6 C 4,0 C 4,6 C 4,6 C 0,5 C 77 % 55 % 1023,5 hPa 0,0 l/m 0,6 km/h (0 Bft) O-NO 67 0 min 0,4 C 4,6 C 0,0 km/h (0 Bft)
02.04.2023 18:20 4,1 C 9,6 C 4,0 C 4,6 C 4,6 C 0,5 C 77 % 55 % 1023,5 hPa 0,0 l/m 0,3 km/h (0 Bft) NO 45 0 min 0,4 C 4,6 C 3,1 km/h (1 Bft)
02.04.2023 18:25 4,1 C 9,6 C 4,0 C 4,5 C 4,5 C 0,4 C 77 % 55 % 1024,4 hPa 0,0 l/m 0,3 km/h (0 Bft) NO 45 0 min 0,4 C 4,5 C 1,8 km/h (1 Bft)
02.04.2023 18:30 4,1 C 9,6 C 4,0 C 4,4 C 4,4 C 0,3 C 77 % 55 % 1024,4 hPa 0,0 l/m 0,3 km/h (0 Bft) O-NO 67 0 min 0,4 C 4,4 C 3,5 km/h (1 Bft)
02.04.2023 18:35 4,1 C 9,6 C 4,0 C 4,4 C 4,4 C 0,3 C 77 % 57 % 1024,4 hPa 0,0 l/m 0,2 km/h (0 Bft) O-NO 67 0 min 0,4 C 4,4 C 0,0 km/h (0 Bft)
02.04.2023 18:40 4,1 C 9,6 C 4,0 C 4,4 C 4,4 C 0,3 C 77 % 57 % 1024,4 hPa 0,0 l/m 0,0 km/h (0 Bft) O-NO 67 0 min 0,4 C 4,4 C 0,0 km/h (0 Bft)
02.04.2023 18:45 4,0 C 9,6 C 3,9 C 4,3 C 4,3 C 0,3 C 77 % 57 % 1023,9 hPa 0,0 l/m 0,0 km/h (0 Bft) O-NO 67 0 min 0,3 C 4,3 C 0,0 km/h (0 Bft)
02.04.2023 18:50 4,1 C 9,6 C 3,9 C 4,3 C 4,3 C 0,2 C 77 % 57 % 1023,9 hPa 0,0 l/m 0,0 km/h (0 Bft) NO 45 0 min 0,4 C 4,3 C 0,0 km/h (0 Bft)
02.04.2023 18:55 4,0 C 9,6 C 3,8 C 4,2 C 4,2 C 0,2 C 78 % 58 % 1023,9 hPa 0,0 l/m 0,0 km/h (0 Bft) NO 45 0 min 0,5 C 4,2 C 0,0 km/h (0 Bft)
02.04.2023 19:00 4,0 C 9,6 C 3,8 C 4,2 C 4,2 C 0,2 C 78 % 58 % 1023,9 hPa 0,0 l/m 0,0 km/h (0 Bft) O-SO 112 0 min 0,5 C 4,2 C 0,0 km/h (0 Bft)
02.04.2023 19:05 4,0 C 9,6 C 3,8 C 4,1 C 4,1 C 0,1 C 78 % 59 % 1024,2 hPa 0,0 l/m 0,0 km/h (0 Bft) N 360 0 min 0,5 C 4,1 C 0,0 km/h (0 Bft)
02.04.2023 19:10 4,0 C 9,6 C 3,8 C 4,1 C 4,1 C 0,1 C 78 % 59 % 1024,2 hPa 0,0 l/m 0,0 km/h (0 Bft) NO 45 0 min 0,5 C 4,1 C 0,0 km/h (0 Bft)
02.04.2023 19:15 4,0 C 9,6 C 3,7 C 4,0 C 4,0 C 0,0 C 78 % 60 % 1024,2 hPa 0,0 l/m 0,0 km/h (0 Bft) NO 45 0 min 0,5 C 4,0 C 0,0 km/h (0 Bft)
02.04.2023 19:20 4,0 C 9,6 C 3,7 C 4,0 C 4,0 C 0,0 C 78 % 60 % 1024,2 hPa 0,0 l/m 0,0 km/h (0 Bft) N-NO 22 0 min 0,5 C 4,0 C 0,0 km/h (0 Bft)
02.04.2023 19:26 4,0 C 9,6 C 3,6 C 4,0 C 3,9 C 0,0 C 78 % 59 % 1024,5 hPa 0,0 l/m 0,0 km/h (0 Bft) NO 45 0 min 0,5 C 3,9 C 0,0 km/h (0 Bft)
02.04.2023 19:30 4,0 C 9,6 C 3,6 C 4,0 C 3,9 C 0,0 C 78 % 59 % 1024,5 hPa 0,0 l/m 0,0 km/h (0 Bft) NO 45 0 min 0,5 C 3,9 C 0,0 km/h (0 Bft)
02.04.2023 19:37 3,9 C 9,6 C 3,6 C 3,9 C 3,8 C 0,0 C 78 % 59 % 1024,5 hPa 0,0 l/m 0,0 km/h (0 Bft) S 180 0 min 0,4 C 3,8 C 0,0 km/h (0 Bft)
02.04.2023 19:38 3,9 C 9,6 C 3,6 C 3,9 C 3,8 C 0,0 C 78 % 59 % 1024,5 hPa 0,0 l/m 0,0 km/h (0 Bft) S 180 0 min 0,4 C 3,8 C 0,0 km/h (0 Bft)
02.04.2023 19:39 3,9 C 9,6 C 3,6 C 3,9 C 3,8 C 0,0 C 78 % 59 % 1024,5 hPa 0,0 l/m 0,0 km/h (0 Bft) S 180 0 min 0,4 C 3,8 C 0,0 km/h (0 Bft)
02.04.2023 19:40 3,9 C 9,5 C 3,5 C 3,8 C 3,7 C 0,0 C 78 % 58 % 1024,6 hPa 0,0 l/m 0,0 km/h (0 Bft) NO 45 0 min 0,4 C 3,7 C 0,0 km/h (0 Bft)
02.04.2023 19:41 3,9 C 9,5 C 3,5 C 3,8 C 3,7 C 0,0 C 78 % 58 % 1024,6 hPa 0,0 l/m 0,0 km/h (0 Bft) NO 45 0 min 0,4 C 3,7 C 0,0 km/h (0 Bft)
02.04.2023 19:43 3,9 C 9,5 C 3,5 C 3,8 C 3,7 C 0,0 C 78 % 58 % 1024,6 hPa 0,0 l/m 0,0 km/h (0 Bft) NO 45 0 min 0,4 C 3,7 C 0,0 km/h (0 Bft)
02.04.2023 19:45 3,9 C 9,5 C 3,5 C 3,8 C 3,7 C 0,0 C 78 % 58 % 1024,6 hPa 0,0 l/m 0,0 km/h (0 Bft) NO 45 0 min 0,4 C 3,7 C 0,0 km/h (0 Bft)
02.04.2023 19:50 3,9 C 9,6 C 3,5 C 3,8 C 3,6 C 0,0 C 78 % 59 % 1024,6 hPa 0,0 l/m 0,0 km/h (0 Bft) NW 315 0 min 0,4 C 3,6 C 0,0 km/h (0 Bft)
02.04.2023 19:55 3,9 C 9,5 C 3,5 C 3,8 C 3,5 C 0,0 C 78 % 59 % 1024,6 hPa 0,0 l/m 0,0 km/h (0 Bft) NW 315 0 min 0,4 C 3,5 C 0,0 km/h (0 Bft)
02.04.2023 20:00 3,9 C 9,5 C 3,3 C 3,8 C 3,5 C 0,0 C 78 % 59 % 1024,6 hPa 0,0 l/m 0,0 km/h (0 Bft) NW 315 0 min 0,4 C 3,5 C 0,0 km/h (0 Bft)
02.04.2023 20:05 3,9 C 9,5 C 3,2 C 3,7 C 3,4 C 0,0 C 78 % 60 % 1024,6 hPa 0,0 l/m 0,0 km/h (0 Bft) W-SW 247 0 min 0,4 C 3,4 C 0,0 km/h (0 Bft)
02.04.2023 20:11 3,7 C 9,5 C 3,1 C 3,5 C 3,2 C 0,0 C 78 % 61 % 1024,6 hPa 0,0 l/m 0,0 km/h (0 Bft) N 0 0 min 0,2 C 3,2 C 0,0 km/h (0 Bft)
02.04.2023 20:34 3,6 C 9,6 C 3,1 C 3,4 C 3,1 C 0,0 C 79 % 62 % 1024,7 hPa 0,0 l/m 0,0 km/h (0 Bft) N-NW 337 0 min 0,3 C 3,1 C 0,0 km/h (0 Bft)
02.04.2023 20:40 3,6 C 9,6 C 3,0 C 3,4 C 3,1 C 0,0 C 79 % 62 % 1024,7 hPa 0,0 l/m 0,0 km/h (0 Bft) N-NW 337 0 min 0,3 C 3,1 C 0,0 km/h (0 Bft)
02.04.2023 20:45 3,6 C 9,6 C 2,9 C 3,4 C 3,0 C 0,0 C 79 % 63 % 1025,0 hPa 0,0 l/m 0,0 km/h (0 Bft) N-NW 337 0 min 0,3 C 3,0 C 0,0 km/h (0 Bft)
02.04.2023 20:50 3,5 C 9,6 C 2,9 C 3,3 C 3,0 C 0,0 C 79 % 63 % 1025,0 hPa 0,0 l/m 0,0 km/h (0 Bft) N-NW 337 0 min 0,2 C 3,0 C 0,0 km/h (0 Bft)
02.04.2023 20:56 3,5 C 9,6 C 3,0 C 3,3 C 3,0 C 0,0 C 79 % 63 % 1025,0 hPa 0,0 l/m 0,0 km/h (0 Bft) N-NW 337 0 min 0,2 C 3,0 C 0,0 km/h (0 Bft)
02.04.2023 21:00 3,5 C 9,6 C 3,0 C 3,3 C 3,0 C 0,0 C 79 % 63 % 1025,0 hPa 0,0 l/m 0,0 km/h (0 Bft) N-NW 337 0 min 0,2 C 3,0 C 0,0 km/h (0 Bft)
02.04.2023 21:07 3,4 C 9,5 C 2,9 C 3,3 C 3,0 C 0,0 C 79 % 63 % 1025,8 hPa 0,0 l/m 0,0 km/h (0 Bft) N-NW 337 0 min 0,1 C 3,0 C 0,0 km/h (0 Bft)
02.04.2023 21:08 3,4 C 9,5 C 2,9 C 3,3 C 3,0 C 0,0 C 79 % 63 % 1025,8 hPa 0,0 l/m 0,0 km/h (0 Bft) N-NW 337 0 min 0,1 C 3,0 C 0,0 km/h (0 Bft)
02.04.2023 21:09 3,4 C 9,5 C 2,9 C 3,3 C 3,0 C 0,0 C 79 % 63 % 1025,8 hPa 0,0 l/m 0,0 km/h (0 Bft) N-NW 337 0 min 0,1 C 3,0 C 0,0 km/h (0 Bft)
02.04.2023 21:10 3,4 C 9,5 C 2,9 C 3,3 C 3,0 C 0,0 C 79 % 63 % 1025,8 hPa 0,0 l/m 0,0 km/h (0 Bft) N-NW 337 0 min 0,1 C 3,0 C 0,0 km/h (0 Bft)
02.04.2023 21:11 3,5 C 9,5 C 2,8 C 3,3 C 3,0 C 0,0 C 79 % 63 % 1025,8 hPa 0,0 l/m 0,0 km/h (0 Bft) N-NW 337 0 min 0,2 C 3,0 C 0,0 km/h (0 Bft)
02.04.2023 21:13 3,5 C 9,5 C 2,8 C 3,3 C 3,0 C 0,0 C 79 % 63 % 1025,8 hPa 0,0 l/m 0,0 km/h (0 Bft) N-NW 337 0 min 0,2 C 3,0 C 0,0 km/h (0 Bft)
02.04.2023 21:15 3,5 C 9,5 C 2,8 C 3,3 C 3,0 C 0,0 C 79 % 63 % 1025,8 hPa 0,0 l/m 0,0 km/h (0 Bft) N-NW 337 0 min 0,2 C 3,0 C 0,0 km/h (0 Bft)
02.04.2023 21:20 3,5 C 9,5 C 3,0 C 3,3 C 3,0 C 0,0 C 79 % 64 % 1025,8 hPa 0,0 l/m 0,0 km/h (0 Bft) N-NW 337 0 min 0,2 C 3,0 C 0,0 km/h (0 Bft)
02.04.2023 21:25 3,4 C 9,6 C 2,9 C 3,3 C 3,0 C 0,0 C 80 % 64 % 1025,4 hPa 0,0 l/m 0,0 km/h (0 Bft) N-NW 337 0 min 0,3 C 3,0 C 0,0 km/h (0 Bft)
02.04.2023 21:30 3,3 C 9,6 C 2,9 C 3,2 C 2,9 C 0,0 C 80 % 64 % 1025,4 hPa 0,0 l/m 0,0 km/h (0 Bft) N-NW 337 0 min 0,2 C 2,9 C 0,0 km/h (0 Bft)
02.04.2023 21:35 3,4 C 9,5 C 2,8 C 3,2 C 2,9 C 0,0 C 80 % 64 % 1025,4 hPa 0,0 l/m 0,0 km/h (0 Bft) N-NW 337 0 min 0,3 C 2,9 C 0,0 km/h (0 Bft)
02.04.2023 21:40 3,3 C 9,5 C 2,8 C 3,2 C 3,0 C 0,0 C 80 % 65 % 1025,4 hPa 0,0 l/m 0,0 km/h (0 Bft) N-NW 337 0 min 0,2 C 3,0 C 0,0 km/h (0 Bft)
02.04.2023 21:45 3,5 C 9,6 C 2,9 C 3,3 C 3,0 C 0,0 C 80 % 65 % 1026,4 hPa 0,0 l/m 0,0 km/h (0 Bft) N-NW 337 0 min 0,4 C 3,0 C 0,0 km/h (0 Bft)
02.04.2023 21:50 3,5 C 9,6 C 2,9 C 3,3 C 3,0 C 0,0 C 81 % 66 % 1026,4 hPa 0,0 l/m 0,0 km/h (0 Bft) N-NW 337 0 min 0,6 C 3,0 C 0,0 km/h (0 Bft)
02.04.2023 21:55 3,5 C 9,6 C 2,9 C 3,3 C 2,9 C 0,0 C 81 % 67 % 1026,4 hPa 0,0 l/m 0,0 km/h (0 Bft) N-NW 337 0 min 0,6 C 2,9 C 0,0 km/h (0 Bft)
02.04.2023 22:00 3,4 C 9,6 C 2,9 C 3,2 C 2,9 C 0,0 C 81 % 67 % 1026,4 hPa 0,0 l/m 0,0 km/h (0 Bft) N-NW 337 0 min 0,5 C 2,9 C 0,0 km/h (0 Bft)
02.04.2023 22:05 3,4 C 9,6 C 2,9 C 3,2 C 2,9 C 0,0 C 81 % 67 % 1025,8 hPa 0,0 l/m 0,0 km/h (0 Bft) N-NW 337 0 min 0,5 C 2,9 C 0,0 km/h (0 Bft)
02.04.2023 22:11 3,3 C 9,5 C 3,0 C 3,2 C 3,0 C 0,0 C 81 % 66 % 1025,8 hPa 0,0 l/m 0,0 km/h (0 Bft) N 0 0 min 0,4 C 3,0 C 0,0 km/h (0 Bft)
02.04.2023 22:26 3,3 C 9,5 C 3,1 C 3,2 C 3,0 C 0,0 C 81 % 64 % 1025,9 hPa 0,0 l/m 0,0 km/h (0 Bft) N 360 0 min 0,4 C 3,0 C 0,0 km/h (0 Bft)
02.04.2023 22:48 3,4 C 9,5 C 3,2 C 3,4 C 3,3 C 0,0 C 81 % 60 % 1026,1 hPa 0,0 l/m 0,0 km/h (0 Bft) NO 45 0 min 0,5 C 3,3 C 0,0 km/h (0 Bft)
02.04.2023 22:50 3,4 C 9,5 C 3,2 C 3,4 C 3,3 C 0,0 C 81 % 60 % 1026,1 hPa 0,0 l/m 0,0 km/h (0 Bft) NO 45 0 min 0,5 C 3,3 C 0,0 km/h (0 Bft)
02.04.2023 22:55 3,4 C 9,5 C 3,3 C 3,4 C 3,4 C 0,0 C 81 % 59 % 1026,1 hPa 0,0 l/m 0,0 km/h (0 Bft) NW 315 0 min 0,5 C 3,4 C 0,0 km/h (0 Bft)
02.04.2023 23:00 3,5 C 9,5 C 3,2 C 3,5 C 3,5 C 0,0 C 81 % 59 % 1026,1 hPa 0,0 l/m 0,0 km/h (0 Bft) N-NO 22 0 min 0,6 C 3,5 C 0,0 km/h (0 Bft)
02.04.2023 23:05 3,5 C 9,5 C 3,2 C 3,5 C 3,4 C 0,0 C 81 % 60 % 1027,0 hPa 0,0 l/m 0,0 km/h (0 Bft) W 270 0 min 0,6 C 3,4 C 0,0 km/h (0 Bft)
02.04.2023 23:10 3,5 C 9,5 C 3,1 C 3,4 C 3,3 C 0,0 C 81 % 61 % 1027,0 hPa 0,0 l/m 0,0 km/h (0 Bft) NW 315 0 min 0,6 C 3,3 C 0,0 km/h (0 Bft)
02.04.2023 23:15 3,5 C 9,5 C 3,2 C 3,4 C 3,3 C 0,0 C 80 % 60 % 1027,0 hPa 0,0 l/m 0,0 km/h (0 Bft) NW 315 0 min 0,4 C 3,3 C 0,0 km/h (0 Bft)
02.04.2023 23:20 3,5 C 9,5 C 3,2 C 3,4 C 3,3 C 0,0 C 80 % 60 % 1027,0 hPa 0,0 l/m 0,0 km/h (0 Bft) N-NW 337 0 min 0,4 C 3,3 C 0,0 km/h (0 Bft)
02.04.2023 23:25 3,5 C 9,5 C 3,3 C 3,4 C 3,3 C 0,0 C 80 % 59 % 1026,9 hPa 0,0 l/m 0,2 km/h (0 Bft) SW 225 0 min 0,4 C 3,3 C 0,0 km/h (0 Bft)
02.04.2023 23:30 3,5 C 9,4 C 3,3 C 3,5 C 3,4 C 0,0 C 80 % 58 % 1026,9 hPa 0,0 l/m 0,2 km/h (0 Bft) N-NW 337 0 min 0,4 C 3,4 C 0,0 km/h (0 Bft)
02.04.2023 23:35 3,6 C 9,4 C 3,2 C 3,5 C 3,4 C 0,0 C 80 % 58 % 1026,9 hPa 0,0 l/m 0,2 km/h (0 Bft) W-NW 292 0 min 0,5 C 3,4 C 0,0 km/h (0 Bft)
02.04.2023 23:40 3,6 C 9,4 C 3,2 C 3,5 C 3,4 C 0,0 C 79 % 58 % 1026,9 hPa 0,0 l/m 0,2 km/h (0 Bft) NW 315 0 min 0,3 C 3,4 C 0,0 km/h (0 Bft)
02.04.2023 23:45 3,6 C 9,4 C 3,1 C 3,5 C 3,3 C 0,0 C 79 % 58 % 1026,8 hPa 0,0 l/m 0,0 km/h (0 Bft) O-NO 67 0 min 0,3 C 3,3 C 0,0 km/h (0 Bft)
02.04.2023 23:50 3,5 C 9,4 C 3,2 C 3,4 C 3,3 C 0,0 C 79 % 58 % 1026,8 hPa 0,0 l/m 0,0 km/h (0 Bft) O-NO 67 0 min 0,2 C 3,3 C 0,0 km/h (0 Bft)
02.04.2023 23:55 3,5 C 9,4 C 3,1 C 3,4 C 3,3 C 0,0 C 79 % 57 % 1026,8 hPa 0,0 l/m 0,3 km/h (0 Bft) W-NW 292 0 min 0,2 C 3,3 C 0,0 km/h (0 Bft)
_ Min-Zeit 10:25 23:30 09:20 09:50 09:50 00:00 18:10 18:05 00:05 - 00:00 - - - 10:25 09:50 00:00
Minimum _ 1,4 C 9,4 C 2,2 C 1,2 C 0,7 C 0,0 C 77 % 54 % 1005,7 hPa - 0,0 km/h (0 Bft) - - - -0,2 C -0,9 C 0,0 km/h (0 Bft)
_ Max-Zeit 00:00 00:00 00:00 00:00 00:00 15:20 00:53 00:00 23:05 00:53 04:35 - - 06:55 00:00 00:00 08:25
Maximum _ 8,8 C 12,3 C 8,4 C 8,7 C 8,5 C 2,9 C 89 % 89 % 1027,0 hPa 0,7 l/m 6,4 km/h
O-NO (2 Bft)
- - 5 min 6,9 C 8,5 C 13,2 km/h
NO (3 Bft)
Durchschnitt _ 3,7 C 10,6 C 3,9 C 4,3 C 4,2 C 0,6 C 86 % 74 % 1017,4 hPa #3,4 l/m 1,5 km/h (1 Bft) O-NO - #5 min. 1,5 C 4,1 C 2,1 km/h (1 Bft)
2023 www.wetterstation-wechselburg.de